Weather History for Biloxi, MS

Change the Weather History Date:

Monday, August 13, 2012

  Actual Average Record
Temperature  
Mean Temperature 84 °F -  
Max Temperature 90 °F 89 °F 96 °F (1999)
Min Temperature 78 °F 74 °F 64 °F (2004)
Cooling Degree Days 18    
Growing Degree Days 34 (Base 50)    
Moisture  
Dew Point 69 °F    
Average Humidity 61    
Maximum Humidity 72    
Minimum Humidity 48    
Precipitation  
Precipitation 0.03 in - - ()
Sea Level Pressure  
Sea Level Pressure 30.00 in    
Wind  
Wind Speed 7 mph (SW)    
Max Wind Speed 18 mph    
Max Gust Speed 20 mph    
Visibility 10 miles    
Events Rain , Thunderstorm    
Averages and records for this station are not official NWS values.
T = Trace of Precipitation, MM = Missing Value Source: NWS Daily Summary

Daily Weather History Graph

Daily Weather History Graph

Search for Another Location

Airport:

Trip Planner

Search our weather history database for the weather conditions in past years. The results will help you decide how hot, cold, wet, or windy it might be!

Date:

Astronomy

Aug. 13, 2012 Rise Set
Actual Time 6:21 AM CDT 7:38 PM CDT
Civil Twilight 5:56 AM CDT 8:04 PM CDT
Nautical Twilight 5:26 AM CDT 8:34 PM CDT
Astronomical Twilight 4:54 AM CDT 9:05 PM CDT
Moon 2:32 AM CDT (8/13) 4:43 PM CDT (8/13)
Length of Visible Light 14h 07m
Length of Day
13h 17m
Waning Crescent, 16% of the Moon is Illuminated
Aug 13
Waning Crescent
Aug 17
New
Aug 24
First Quarter
Aug 31
Full
Sep 8
Last Quarter

Hourly Weather History & Observations

Time (CDT) Temp. Heat Index Dew Point Humidity Pressure Visibility Wind Dir Wind Speed Gust Speed Precip Events Conditions
12:55 AM 81.0 °F 84.1 °F 69.3 °F 67% 30.02 in 10.0 mi SW 6.9 mph - N/A   Clear
1:55 AM 80.4 °F 83.5 °F 69.6 °F 69% 30.02 in 10.0 mi SW 5.8 mph - N/A   Scattered Clouds
2:34 AM 80.6 °F 83.9 °F 69.8 °F 70% 30.01 in 10.0 mi SW 5.8 mph - N/A   Mostly Cloudy
2:50 AM 80.6 °F 83.9 °F 69.8 °F 70% 30.01 in 10.0 mi SW 5.8 mph - N/A   Scattered Clouds
2:51 AM 80.6 °F 83.9 °F 69.8 °F 70% 30.01 in 10.0 mi SW 5.8 mph - N/A   Mostly Cloudy
2:55 AM 81.0 °F 84.1 °F 69.3 °F 67% 30.01 in 10.0 mi SW 6.9 mph - N/A   Mostly Cloudy
3:00 AM 80.6 °F 83.9 °F 69.8 °F 70% 30.01 in 10.0 mi SW 5.8 mph - N/A   Scattered Clouds
3:55 AM 81.0 °F 83.9 °F 68.7 °F 66% 30.00 in 10.0 mi WSW 4.6 mph - N/A   Scattered Clouds
3:58 AM 80.6 °F 83.2 °F 68.0 °F 65% 30.01 in 10.0 mi WSW 4.6 mph - N/A   Mostly Cloudy
4:02 AM 80.6 °F 83.9 °F 69.8 °F 70% 30.01 in 10.0 mi WSW 4.6 mph - N/A   Scattered Clouds
4:11 AM 80.6 °F 83.9 °F 69.8 °F 70% 30.00 in 10.0 mi WSW 3.5 mph - N/A   Mostly Cloudy
4:18 AM 80.6 °F 83.9 °F 69.8 °F 70% 30.00 in 10.0 mi WSW 4.6 mph - N/A   Scattered Clouds
4:55 AM 80.2 °F 83.1 °F 68.9 °F 68% 30.00 in 10.0 mi Calm Calm - N/A   Clear
5:55 AM 79.2 °F - 69.4 °F 72% 30.01 in 10.0 mi Calm Calm - N/A   Clear
6:55 AM 79.5 °F - 69.6 °F 72% 30.03 in 10.0 mi Calm Calm - N/A   Partly Cloudy
7:55 AM 82.6 °F 86.4 °F 69.6 °F 65% 30.04 in 10.0 mi Calm Calm - N/A   Clear
8:37 AM 84.2 °F 88.4 °F 69.8 °F 62% 30.04 in 10.0 mi WNW 8.1 mph - N/A   Scattered Clouds
8:55 AM 80.8 °F 82.8 °F 65.7 °F 60% 30.04 in 10.0 mi SW 9.2 mph - N/A   Scattered Clouds
9:55 AM 85.1 °F 86.9 °F 65.3 °F 51% 30.05 in 10.0 mi SW 3.5 mph - N/A   Clear
10:55 AM 88.0 °F 92.1 °F 68.7 °F 53% 30.06 in 10.0 mi SW 10.4 mph - N/A   Scattered Clouds
11:55 AM 88.3 °F 92.8 °F 69.1 °F 53% 30.05 in 10.0 mi SSW 12.7 mph - N/A   Partly Cloudy
12:55 PM 89.1 °F 92.5 °F 67.6 °F 49% 30.02 in 10.0 mi SSW 13.8 mph - N/A   Clear
1:24 PM 89.6 °F 93.4 °F 68.0 °F 49% 30.02 in 10.0 mi SSW 13.8 mph - N/A Thunderstorm Thunderstorm
1:38 PM 84.2 °F 87.3 °F 68.0 °F 58% 30.03 in 10.0 mi Variable 4.6 mph - N/A Rain , Thunderstorm Light Thunderstorms and Rain
1:41 PM 82.4 °F 85.4 °F 68.0 °F 62% 30.02 in 7.0 mi NW 8.1 mph - N/A Rain Light Rain
1:55 PM 78.6 °F - 65.8 °F 65% 30.01 in 7.0 mi West 6.9 mph - 0.03 in Rain , Thunderstorm Light Rain
2:08 PM 80.6 °F 83.2 °F 68.0 °F 65% 30.00 in 10.0 mi WSW 5.8 mph - N/A   Scattered Clouds
2:20 PM 82.4 °F 86.3 °F 69.8 °F 66% 29.99 in 10.0 mi SW 6.9 mph - N/A Thunderstorm Thunderstorm
2:35 PM 86.0 °F 91.8 °F 71.6 °F 62% 30.00 in 10.0 mi SSW 6.9 mph - N/A Thunderstorm Partly Cloudy
2:55 PM 86.4 °F 91.4 °F 70.3 °F 59% 29.99 in 10.0 mi SSW 12.7 mph - 0.00 in   Scattered Clouds
3:54 PM 87.8 °F 91.4 °F 68.0 °F 52% 29.98 in 10.0 mi South 13.8 mph - N/A Thunderstorm Thunderstorm
3:55 PM 88.7 °F 91.9 °F 67.3 °F 49% 29.98 in 10.0 mi South 13.8 mph - N/A Thunderstorm Thunderstorm
4:24 PM 89.6 °F 93.4 °F 68.0 °F 49% 29.97 in 10.0 mi SSW 15.0 mph - N/A Thunderstorm Partly Cloudy
4:46 PM 87.8 °F 91.4 °F 68.0 °F 52% 29.97 in 10.0 mi SSW 17.3 mph - N/A Thunderstorm Thunderstorm
4:55 PM 87.8 °F 90.0 °F 65.8 °F 48% 29.96 in 10.0 mi SSW 18.4 mph - N/A Thunderstorm Thunderstorm
5:04 PM 87.8 °F 90.4 °F 66.2 °F 49% 29.96 in 10.0 mi SW 17.3 mph - N/A   Clear
5:55 PM 85.8 °F 88.5 °F 67.1 °F 53% 29.96 in 10.0 mi SW 15.0 mph - N/A   Clear
6:55 PM 85.1 °F 87.7 °F 66.9 °F 54% 29.95 in 10.0 mi WSW 11.5 mph 19.6 mph N/A   Partly Cloudy
7:55 PM 84.6 °F 88.5 °F 69.1 °F 60% 29.96 in 10.0 mi SW 11.5 mph - N/A   Mostly Cloudy
8:55 PM 84.7 °F 87.1 °F 66.4 °F 54% 29.99 in 10.0 mi WSW 9.2 mph - N/A   Mostly Cloudy
9:55 PM 84.0 °F 87.3 °F 68.2 °F 59% 30.01 in 10.0 mi WSW 13.8 mph - N/A   Partly Cloudy
10:55 PM 84.0 °F 87.6 °F 68.7 °F 60% 30.00 in 10.0 mi SW 10.4 mph - N/A   Partly Cloudy
11:55 PM 84.0 °F 87.8 °F 69.4 °F 61% 29.98 in 10.0 mi WSW 15.0 mph - N/A   Clear